Location: Roland
(31.1349°N, 85.4372°W)
Time: 04:31:11
(UTC+00:00)

Courier 1B - Pass Details

Date: 22 April 2021
Orbit: 962 x 1209 km, 28.3° (Epoch: 07 May)

Event Time Altitude Azimuth Distance (km) Brightness Sun altitude
Rises 22:45:01 0° 271° (W) 3,634 12.2 18.1°
Reaches altitude 10° 22:48:04 10° 259° (W) 2,686 11.7 17.5°
Maximum altitude 22:53:18 26° 204° (SSW) 1,788 9.3 16.4°
Drops below altitude 10° 22:58:39 10° 150° (SSE) 2,740 9.6 15.2°
Sets 23:01:48 0° 138° (SE) 3,721 10.1 14.6°
